Caldwell, ID

6:10 AM MDT on April 21, 2018 (GMT -0600)
Caldwell Industrial

Weather History for KEUL - July, 2013

Change the Weather History Date:

Friday, July 26, 2013

  Actual Average (KBOI) Record (KBOI)
Temperature  
Mean Temperature 80 °F -  
Max Temperature 100 °F 93 °F 105 °F (1978)
Min Temperature 60 °F 58 °F 41 °F (1894)
Cooling Degree Days 15    
Growing Degree Days 30 (Base 50)    
Moisture  
Dew Point 47 °F    
Average Humidity 34    
Maximum Humidity 59    
Minimum Humidity 12    
Precipitation  
Precipitation 0.00 in - - ()
Sea Level Pressure  
Sea Level Pressure 30.03 in    
Wind  
Wind Speed 4 mph (WNW)    
Max Wind Speed 12 mph    
Max Gust Speed -    
Visibility 10 miles    
Events      
Averages and records for this station are not official NWS values.
T = Trace of Precipitation, MM = Missing Value Source: NWS Daily Summary

Daily Weather History Graph

Daily Weather History Graph

Search for Another Location

Airport or City:

Astronomy

Jul. 26, 2013 Rise Set
Actual Time 6:29 AM MDT 9:15 PM MDT
Civil Twilight 5:56 AM MDT 9:49 PM MDT
Nautical Twilight 5:14 AM MDT 10:30 PM MDT
Astronomical Twilight 4:25 AM MDT 11:19 PM MDT
Moon 11:20 PM MDT (7/26) 11:21 AM MDT (7/26)
Length of Visible Light 15h 52m
Length of Day
14h 46m
Waning Gibbous, 79% of the Moon is Illuminated
Jul 26
Waning Gibbous
Jul 29
Last Quarter
Aug 6
New
Aug 14
First Quarter
Aug 20
Full

Hourly Weather History & Observations

Time (MDT) Temp. Heat Index Dew Point Humidity Pressure Visibility Wind Dir Wind Speed Gust Speed Precip Events Conditions
12:15 AM 71.6 °F - 48.2 °F 43% 30.00 in 10.0 mi North 6.9 mph - N/A   Clear
12:35 AM 73.4 °F - 46.4 °F 38% 30.01 in 10.0 mi Calm Calm - N/A   Clear
12:55 AM 71.6 °F - 46.4 °F 41% 30.01 in 10.0 mi Calm Calm - N/A   Clear
1:15 AM 68.0 °F - 46.4 °F 46% 30.01 in 10.0 mi NE 3.5 mph - N/A   Clear
1:35 AM 69.8 °F - 48.2 °F 46% 30.01 in 10.0 mi SW 4.6 mph - N/A   Clear
1:55 AM 71.6 °F - 48.2 °F 43% 30.02 in 10.0 mi SW 5.8 mph - N/A   Clear
2:15 AM 71.6 °F - 46.4 °F 41% 30.02 in 10.0 mi West 6.9 mph - N/A   Clear
2:35 AM 71.6 °F - 44.6 °F 38% 30.02 in 10.0 mi WNW 3.5 mph - N/A   Clear
2:55 AM 69.8 °F - 44.6 °F 40% 30.02 in 10.0 mi WSW 8.1 mph - N/A   Clear
3:15 AM 71.6 °F - 42.8 °F 35% 30.02 in 10.0 mi West 9.2 mph - N/A   Clear
3:35 AM 71.6 °F - 41.0 °F 33% 30.02 in 10.0 mi WNW 6.9 mph - N/A   Clear
3:55 AM 69.8 °F - 41.0 °F 35% 30.03 in 10.0 mi WNW 5.8 mph - N/A   Clear
4:15 AM 69.8 °F - 41.0 °F 35% 30.04 in 10.0 mi West 4.6 mph - N/A   Clear
4:35 AM 68.0 °F - 41.0 °F 37% 30.04 in 10.0 mi WNW 5.8 mph - N/A   Clear
4:55 AM 66.2 °F - 39.2 °F 37% 30.04 in 10.0 mi NNW 5.8 mph - N/A   Clear
5:15 AM 62.6 °F - 42.8 °F 48% 30.05 in 10.0 mi NE 4.6 mph - N/A   Clear
5:35 AM 62.6 °F - 44.6 °F 52% 30.06 in 10.0 mi ESE 3.5 mph - N/A   Clear
5:55 AM 60.8 °F - 44.6 °F 55% 30.06 in 10.0 mi Calm Calm - N/A   Clear
6:15 AM 62.6 °F - 44.6 °F 52% 30.06 in 10.0 mi Calm Calm - N/A   Clear
6:35 AM 60.8 °F - 44.6 °F 55% 30.06 in 10.0 mi East 3.5 mph - N/A   Clear
6:55 AM 62.6 °F - 44.6 °F 52% 30.08 in 10.0 mi South 5.8 mph - N/A   Clear
7:15 AM 62.6 °F - 44.6 °F 52% 30.08 in 10.0 mi Calm Calm - N/A   Clear
7:35 AM 60.8 °F - 46.4 °F 59% 30.08 in 10.0 mi Calm Calm - N/A   Clear
7:55 AM 66.2 °F - 46.4 °F 49% 30.09 in 10.0 mi Calm Calm - N/A   Clear
8:15 AM 68.0 °F - 48.2 °F 49% 30.09 in 10.0 mi Calm Calm - N/A   Clear
8:35 AM 71.6 °F - 48.2 °F 43% 30.09 in 10.0 mi NNE 4.6 mph - N/A   Clear
8:55 AM 71.6 °F - 50.0 °F 46% 30.10 in 10.0 mi NNE 4.6 mph - N/A   Clear
9:15 AM 71.6 °F - 51.8 °F 50% 30.10 in 10.0 mi NE 4.6 mph - N/A   Clear
9:35 AM 73.4 °F - 51.8 °F 47% 30.10 in 10.0 mi ENE 3.5 mph - N/A   Clear
9:55 AM 75.2 °F - 50.0 °F 41% 30.11 in 10.0 mi Calm Calm - N/A   Clear
10:15 AM 78.8 °F - 48.2 °F 34% 30.11 in 10.0 mi Calm Calm - N/A   Clear
10:35 AM 78.8 °F - 46.4 °F 32% 30.11 in 10.0 mi Calm Calm - N/A   Clear
10:55 AM 78.8 °F - 48.2 °F 34% 30.10 in 10.0 mi NNW 4.6 mph - N/A   Clear
11:15 AM 80.6 °F - 50.0 °F 34% 30.12 in 10.0 mi SW 6.9 mph - N/A   Clear
11:35 AM 84.2 °F - 46.4 °F 27% 30.11 in 10.0 mi West 6.9 mph - N/A   Clear
11:55 AM 84.2 °F - 42.8 °F 23% 30.10 in 9.0 mi North 5.8 mph - N/A   Clear
12:15 PM 84.2 °F - 46.4 °F 27% 30.11 in 10.0 mi WSW 5.8 mph - N/A   Clear
12:35 PM 86.0 °F - 44.6 °F 23% 30.10 in 10.0 mi West 5.8 mph - N/A   Clear
12:55 PM 87.8 °F - 42.8 °F 21% 30.10 in 10.0 mi NW 5.8 mph - N/A   Clear
1:15 PM 87.8 °F - 42.8 °F 21% 30.10 in 10.0 mi NNW 3.5 mph - N/A   Clear
1:35 PM 87.8 °F - 42.8 °F 21% 30.08 in 10.0 mi North 5.8 mph - N/A   Clear
1:55 PM 91.4 °F - 44.6 °F 20% 30.07 in 10.0 mi NNW 6.9 mph - N/A   Clear
2:15 PM 93.2 °F - 46.4 °F 20% 30.06 in 10.0 mi NNE 5.8 mph - N/A   Clear
2:55 PM 98.6 °F - 42.8 °F 15% 30.04 in 10.0 mi NNE 6.9 mph - N/A   Clear
3:35 PM 100.4 °F - 39.2 °F 12% 30.02 in 10.0 mi North 6.9 mph - N/A   Clear
3:55 PM 100.4 °F - 39.2 °F 12% 30.01 in 10.0 mi North 6.9 mph - N/A   Clear
4:15 PM 100.4 °F - 39.2 °F 12% 30.00 in 10.0 mi North 5.8 mph - N/A   Clear
4:35 PM 98.6 °F - 39.2 °F 13% 29.99 in 10.0 mi NW 4.6 mph - N/A   Clear
4:55 PM 98.6 °F - 39.2 °F 13% 29.99 in 10.0 mi NW 5.8 mph - N/A   Clear
5:15 PM 98.6 °F - 39.2 °F 13% 29.98 in 10.0 mi NNW 3.5 mph - N/A   Clear
5:35 PM 96.8 °F - 48.2 °F 19% 29.98 in 10.0 mi WSW 10.4 mph - N/A   Clear
5:55 PM 95.0 °F - 51.8 °F 23% 29.97 in 10.0 mi West 11.5 mph - N/A   Clear
6:15 PM 93.2 °F - 51.8 °F 24% 29.96 in 10.0 mi WSW 8.1 mph - N/A   Clear
6:35 PM 93.2 °F - 51.8 °F 24% 29.96 in 10.0 mi West 6.9 mph - N/A   Clear
6:55 PM 93.2 °F - 51.8 °F 24% 29.95 in 10.0 mi SW 6.9 mph - N/A   Clear
7:15 PM 95.0 °F - 51.8 °F 23% 29.95 in 10.0 mi West 3.5 mph - N/A   Clear
7:35 PM 95.0 °F - 50.0 °F 22% 29.94 in 10.0 mi WSW 3.5 mph - N/A   Clear
7:55 PM 93.2 °F - 50.0 °F 23% 29.94 in 10.0 mi WSW 4.6 mph - N/A   Clear
8:15 PM 93.2 °F - 51.8 °F 24% 29.93 in 10.0 mi WSW 4.6 mph - N/A   Clear
8:35 PM 91.4 °F - 50.0 °F 24% 29.93 in 10.0 mi SW 3.5 mph - N/A   Clear
8:55 PM 86.0 °F 84.2 °F 53.6 °F 33% 29.94 in 10.0 mi Calm Calm - N/A   Clear
9:15 PM 87.8 °F 85.7 °F 53.6 °F 31% 29.93 in 10.0 mi West 4.6 mph - N/A   Clear
9:35 PM 84.2 °F - 51.8 °F 33% 29.94 in 10.0 mi NNW 3.5 mph - N/A   Clear
9:55 PM 84.2 °F 82.8 °F 53.6 °F 35% 29.94 in 10.0 mi West 3.5 mph - N/A   Clear
10:15 PM 80.6 °F 80.3 °F 53.6 °F 39% 29.94 in 10.0 mi Calm Calm - N/A   Clear
10:35 PM 80.6 °F 80.3 °F 53.6 °F 39% 29.95 in 10.0 mi WNW 5.8 mph - N/A   Clear
10:55 PM 80.6 °F 80.3 °F 53.6 °F 39% 29.95 in 10.0 mi WNW 5.8 mph - N/A   Clear
11:15 PM 80.6 °F 80.3 °F 53.6 °F 39% 29.96 in 10.0 mi WNW 4.6 mph - N/A   Clear
11:35 PM 80.6 °F 80.3 °F 53.6 °F 39% 29.97 in 10.0 mi NW 6.9 mph - N/A   Clear
11:55 PM 82.4 °F - 50.0 °F 32% 29.98 in 10.0 mi West 9.2 mph - N/A   Clear